Location: Clermont
(50.2608°N, 4.3172°E)
Time: 04:54:29
(UTC+00:00)

Cosmos 1975 Rocket - Pass Details

Date: 13 August 2020
Orbit: 603 x 634 km, 82.5° (Epoch: 19 September)

Event Time Altitude Azimuth Distance (km) Brightness Sun altitude
Rises 23:23:55 0° 348° (NNW) 2,945 7.9 -25.2°
Reaches altitude 10° 23:26:10 10° 346° (NNW) 2,030 6.7 -25.3°
Enters shadow 23:30:21 69° 298° (WNW) 681 3.2 -25.3°
